TimeCDT,TemperatureF,Dew PointF,Humidity,Sea Level PressureIn,VisibilityMPH,Wind Direction,Wind SpeedMPH,Gust SpeedMPH,PrecipitationIn,Events,Conditions,WindDirDegrees,DateUTC
12:53 AM,61.0,55.9,83,29.96,10.0,NNE,4.6,-,N/A,,Overcast,30,2013-05-09 05:53:00
1:53 AM,62.1,55.9,80,29.95,10.0,Calm,Calm,-,N/A,,Overcast,0,2013-05-09 06:53:00
2:53 AM,60.1,57.0,90,29.95,6.0,ENE,8.1,-,0.08,Rain,Light Rain,60,2013-05-09 07:53:00
3:53 AM,59.0,55.9,90,29.94,10.0,ENE,5.8,-,0.00,,Overcast,60,2013-05-09 08:53:00
4:53 AM,59.0,55.9,90,29.92,10.0,East,8.1,-,N/A,,Mostly Cloudy,90,2013-05-09 09:53:00
5:53 AM,60.1,55.0,83,29.93,10.0,East,9.2,-,N/A,,Overcast,90,2013-05-09 10:53:00
6:53 AM,59.0,57.0,93,29.95,9.0,SSE,6.9,-,0.00,,Overcast,160,2013-05-09 11:53:00
7:53 AM,59.0,55.9,90,29.94,10.0,SE,8.1,-,N/A,,Overcast,140,2013-05-09 12:53:00
8:53 AM,60.1,57.0,90,29.93,9.0,ESE,6.9,-,0.01,Rain,Light Rain,120,2013-05-09 13:53:00
9:53 AM,61.0,57.0,87,29.93,10.0,East,5.8,-,0.00,,Overcast,80,2013-05-09 14:53:00
10:53 AM,61.0,57.0,87,29.94,9.0,SE,5.8,-,N/A,,Overcast,140,2013-05-09 15:53:00
11:53 AM,60.8,57.2,88,29.93,6.0,SE,11.5,-,N/A,Rain,Light Rain,130,2013-05-09 16:53:00
12:53 PM,62.1,60.1,93,29.91,6.0,ESE,6.9,-,0.01,Rain,Light Rain,120,2013-05-09 17:53:00
1:53 PM,63.0,61.0,93,29.90,5.0,NNE,3.5,-,0.01,Rain,Light Rain,30,2013-05-09 18:53:00
2:53 PM,64.4,60.8,88,29.87,6.0,NE,6.9,-,N/A,,Overcast,50,2013-05-09 19:53:00
3:53 PM,63.0,62.1,97,29.85,5.0,NNE,6.9,-,0.00,,Overcast,30,2013-05-09 20:53:00
4:18 PM,64.4,62.6,94,29.84,6.0,NE,9.2,-,N/A,,Overcast,50,2013-05-09 21:18:00
4:53 PM,63.0,60.1,90,29.84,6.0,East,6.9,-,N/A,,Overcast,90,2013-05-09 21:53:00
5:16 PM,62.6,60.8,94,29.83,6.0,East,5.8,-,0.01,Rain,Light Rain,90,2013-05-09 22:16:00
5:26 PM,60.8,60.8,100,29.83,2.5,ENE,3.5,-,0.03,Rain,Rain,70,2013-05-09 22:26:00
5:35 PM,60.8,60.8,100,29.83,0.8,ENE,4.6,-,0.16,Rain,Heavy Rain,60,2013-05-09 22:35:00
5:53 PM,61.0,61.0,100,29.82,1.5,ENE,5.8,-,0.33,Rain,Rain,60,2013-05-09 22:53:00
6:00 PM,60.8,60.8,100,29.82,3.0,ENE,6.9,-,0.01,Rain,Light Rain,70,2013-05-09 23:00:00
6:09 PM,60.8,60.8,100,29.82,3.0,ENE,9.2,-,0.01,Rain,Light Rain,60,2013-05-09 23:09:00
6:25 PM,60.8,60.8,100,29.82,2.5,NE,5.8,-,0.01,,Overcast,50,2013-05-09 23:25:00
6:37 PM,60.8,60.8,100,29.82,3.0,ENE,8.1,-,0.02,Rain,Light Rain,60,2013-05-09 23:37:00
6:53 PM,59.0,59.0,100,29.82,2.5,ENE,12.7,-,0.03,Rain,Rain,70,2013-05-09 23:53:00
7:33 PM,57.2,57.2,100,29.83,2.5,ENE,10.4,-,0.04,Rain,Rain,60,2013-05-10 00:33:00
7:53 PM,57.9,57.9,100,29.83,1.8,NE,11.5,-,0.10,Rain,Rain,40,2013-05-10 00:53:00
8:03 PM,57.2,57.2,100,29.83,2.0,NE,10.4,-,0.02,Rain,Rain,50,2013-05-10 01:03:00
8:32 PM,57.2,57.2,100,29.83,1.5,NNE,9.2,-,0.21,Rain,Heavy Rain,30,2013-05-10 01:32:00
8:53 PM,57.0,57.0,100,29.83,1.5,NE,9.2,-,0.35,Rain,Rain,40,2013-05-10 01:53:00
9:11 PM,57.2,57.2,100,29.82,2.0,NE,9.2,-,0.03,Rain,Light Rain,50,2013-05-10 02:11:00
9:42 PM,57.2,57.2,100,29.82,1.5,NNE,11.5,-,0.08,Rain,Rain,30,2013-05-10 02:42:00
9:53 PM,57.0,57.0,100,29.82,1.0,NE,10.4,-,0.10,Rain,Rain,40,2013-05-10 02:53:00
10:26 PM,57.2,57.2,100,29.82,2.0,NNE,11.5,-,0.03,Rain,Light Rain,30,2013-05-10 03:26:00
10:53 PM,57.0,57.0,100,29.83,2.5,NNE,11.5,20.7,0.03,,Overcast,30,2013-05-10 03:53:00
11:04 PM,55.4,55.4,100,29.83,4.0,NE,15.0,23.0,N/A,,Overcast,40,2013-05-10 04:04:00
11:35 PM,53.6,53.6,100,29.84,7.0,NNE,13.8,24.2,0.00,Rain,Light Rain,30,2013-05-10 04:35:00
11:53 PM,53.6,51.8,94,29.84,7.0,NNE,13.8,21.9,N/A,,Overcast,30,2013-05-10 04:53:00